FENGYUN 1C DEB

Satellite information

Favourite Embed

Satellite Type and Status

DEBRISIN ORBIT

Key statistics

Satellite FENGYUN 1C DEB at a glance.

Uptime

9556

Days in orbit

Revolutions

≈ 14.0

Per day

Orbit

SSO

Sun Synchronous Orbit

Inclination

98.0

Latest

Satellite identification and parameters

Extended collection of information and parameters for FENGYUN 1C DEB.

Object identification

Identified? True

Debris? True

Object name: FENGYUN 1C DEB

International designator: 1999-025SJ

Object number (NORAD): 30129

Object ID (CCSDS): 30129

Country: PEOPLES REPUBLIC OF CHINA (PRC)

Current information (Y/N): Y

RCS size: SMALL

Orbital parameters

Period: 102.762 minutes

Inclination: 98.0145 deg

SMA: 7267.443 km

Apoapsis: 1024.953 km

Periapsis: 753.664 km

RAAN: 148.8133 deg

Eccentricy: 0.0186647

Argument of periapsis: 184.4765 deg

Mean anomaly: 231.9898 deg

Mean motion: 14.01297295 rev/day

Mean motion (dot): -0.00000034 rev/day2

B* drag term: 0.00000080829 1/REarth

Two-line elements (TLE)

Creation date: July 6, 2025, 10:46 p.m.

Reference frame: TEME

Reference center: EARTH

Epoch: July 6, 2025, 8:49 p.m. UTC

TLE line 0: 0 FENGYUN 1C DEB

TLE line 1: 1 30129U 99025SJ 25187.86768706 -.00000034 00000-0 80829-6 0 9992

TLE line 2: 2 30129 98.0145 148.8133 0186647 184.4765 231.9898 14.01297295942699

Live tracking on map

Real-time ground track for satellite FENGYUN 1C DEB.

In-orbit conjunctions

A list of the most updated potential collisions computed for object FENGYUN 1C DEB.

Target Orbit TCA Probability of collision Miss distance Type
CZ-6A DEB LEO 2025-01-07 17:42:51 0.0001502968 579.0 (m) DEBRIS
SL-14 DEB LEO 2024-12-06 04:08:48 0.0001339497 227.0 (m) DEBRIS
DELTA 1 R/B SSO 2024-11-09 02:25:12 0.0001248113 146.0 (m) ROCKET BODY
COSMOS 1417 LEO 2024-09-04 14:53:27 0.008104082 58.0 (m) PAYLOAD

Associated space launch

Chinese polar orbiting meteorological satellite

FENGYUN 1C DEB was lifted into orbit during the mission ‘Long March 4B | Feng Yun 1C’, on board a Long March 4B space rocket.

The launch took place on May 10, 1999, 1:33 a.m. from Launch Complex 7.

For more information about the launch, click the button.

Launch to space Long March 4B | Feng Yun 1C
Long March 4B | Feng Yun 1C

Agency: N/A

Status: Launch Successful

Launch date: May 10, 1999, 1:33 a.m. UTC

Rocket: Long March 4B

Launch pad: Launch Complex 7

Location: Taiyuan Satellite Launch Center, People's Republic of China

...

Latest news about this satellite

There are no fresh news available about this satellite. Check back as we update our databases every day.


Newsletter sign-up

Weekly statistics, charts and insights to help you stay on top of the space industry.